CST,Max TemperatureF,Mean TemperatureF,Min TemperatureF,Max Dew PointF,MeanDew PointF,Min DewpointF,Max Humidity, Mean Humidity, Min Humidity, Max Sea Level PressureIn, Mean Sea Level PressureIn, Min Sea Level PressureIn, Max VisibilityMiles, Mean VisibilityMiles, Min VisibilityMiles, Max Wind SpeedMPH, Mean Wind SpeedMPH, Max Gust SpeedMPH,PrecipitationIn, CloudCover, Events, WindDirDegrees
2011-11-1,63,47,30,35,30,27,92,60,27,30.34,30.29,30.25,10,10,10,8,0,10,0.00,0,,105
2011-11-2,63,51,39,38,34,30,85,59,32,30.38,30.27,30.13,10,10,10,13,5,22,0.00,0,,170
2011-11-3,57,52,47,51,44,33,89,66,43,30.12,29.93,29.83,10,6,1,21,9,37,0.62,6,Rain,207
2011-11-4,51,45,39,43,39,36,93,82,71,30.20,30.07,29.93,10,8,3,18,7,22,0.00,6,,357
2011-11-5,62,50,37,41,38,35,100,72,43,30.29,30.23,30.17,10,5,0,8,3,14,0.01,0,Fog-Rain,112
2011-11-6,61,50,38,43,36,28,70,58,46,30.40,30.33,30.24,10,10,10,15,6,21,0.00,0,,167
2011-11-7,66,55,44,48,45,40,83,68,52,30.38,30.31,30.24,10,10,10,9,2,14,0.00,1,,153
2011-11-8,67,56,44,47,46,41,89,69,48,30.24,30.18,30.07,10,10,10,13,4,20,0.00,2,,170
2011-11-9,64,53,41,56,48,34,84,72,60,30.12,30.03,29.96,10,9,2,18,7,26,0.03,6,Rain,267
2011-11-10,50,41,31,33,25,16,79,57,34,30.15,30.11,30.04,10,10,10,20,8,28,0.00,2,,316
2011-11-11,51,38,24,25,20,14,75,50,24,30.22,30.16,30.11,10,10,10,10,4,15,0.00,0,,239
2011-11-12,59,49,39,31,28,24,59,44,28,30.23,30.17,30.11,10,10,10,14,7,23,0.00,0,,193
2011-11-13,65,59,52,51,41,28,72,55,38,30.12,30.03,29.95,10,10,10,18,9,30,0.00,2,,183
2011-11-14,68,64,59,61,57,52,90,79,68,30.05,29.97,29.90,10,10,7,16,8,28,T,7,Rain,186
2011-11-15,69,65,60,63,60,55,90,83,76,29.97,29.90,29.84,10,9,1,12,5,22,0.29,7,Rain,196
2011-11-16,65,54,43,61,53,40,93,85,77,30.02,29.86,29.76,10,7,0,18,10,26,1.17,8,Rain,12
2011-11-17,45,36,26,39,25,12,89,58,27,30.38,30.19,30.01,10,9,2,21,8,29,0.05,3,Rain,344
2011-11-18,50,36,22,23,20,14,96,63,29,30.43,30.35,30.27,10,9,1,14,5,21,0.00,1,,150
2011-11-19,59,50,41,45,37,23,66,56,45,30.30,30.25,30.19,10,10,10,17,10,30,0.00,3,,179
2011-11-20,62,59,56,58,52,46,90,76,62,30.27,30.24,30.19,10,9,2,13,6,21,0.13,7,Rain,190
2011-11-21,63,61,58,60,58,55,97,91,84,30.31,30.22,30.11,10,4,0,12,3,15,1.17,8,Fog-Rain-Thunderstorm,150
2011-11-22,68,64,59,61,58,55,93,83,73,30.14,29.96,29.86,10,8,0,20,8,28,0.59,7,Fog-Rain,199
2011-11-23,59,48,37,54,42,36,92,78,63,30.31,30.15,29.92,10,7,0,22,8,28,0.02,6,Fog-Rain,329
2011-11-24,59,47,35,38,36,29,92,62,31,30.40,30.35,30.31,10,5,0,8,2,12,0.00,2,Fog-Rain-Snow,61
2011-11-25,62,50,37,34,31,28,85,57,29,30.35,30.28,30.21,10,10,10,14,5,20,0.00,0,,176
2011-11-26,63,58,52,49,45,33,66,54,41,30.26,30.15,29.98,10,10,10,18,8,31,0.00,4,,172
2011-11-27,63,54,44,55,51,41,93,77,60,30.00,29.93,29.87,10,4,2,23,9,41,1.84,8,Rain,186
2011-11-28,53,44,35,50,42,31,100,92,83,29.87,29.73,29.66,10,5,1,15,7,26,2.48,8,Rain,116
2011-11-29,37,35,32,32,30,28,96,86,75,29.97,29.80,29.71,10,4,1,18,7,29,0.11,8,Rain-Snow,238
2011-11-30,39,32,24,33,28,23,96,78,59,30.24,30.10,29.97,10,10,6,13,5,20,0.01,5,,312